STARLINK-6072, 56806

Orbit data source: Space-Track

STARLINK-6072, 56806 is a payload satellite owned by SpaceX/Seattle (US) in LEO that was launched on Wed, 31 May 2023 UTC via an FALCON 9 launch vehicle from the Air Force Western Test Range (AFWTR). Payload-class satellites include a variety of spacecraft equipped with specific instruments for various scientific and technological missions. These include communications satellites like Starlink; space stations such as the ISS; scientific satellites like the Hubble; Earth observation satellites from companies like Planet Labs, Umbra, and HawkEye 360; GPS; miniature CubeSats for education and research; and military/defense satellites.

Loading next visibility...
Identifier
56806, 2023-078AR
Orbit
LEO
Country
Flag of USUS
Related business
Manufacturer
SpaceX/Seattle
Mission
Operational Commercial Communications
Bus & Motor
STARLINK, Unknown motor
Mass
305 kg wet, ~290 kg dry
Launch date (UTC)
2023-05-31 (3 years ago)
Launch vehicle
FALCON 9
Launch site
Air Force Western Test Range (AFWTR)
Object type
Payload
Rocket body
Debris
Shape & HBR
Box + 1 Pan, 10.1 m
Radar Cross Section
11.087 m², Large (>1 m²)

Expand to show TLE details & history
Last TLE update: 2 days ago

TLE from 2 days ago
0 STARLINK-6072
1 56806U 23078AR  26171.05501237 -.00000232  00000-0 -11632-4 0  9991
2 56806  69.9997  46.2031 0002912 264.5600  95.5227 14.98332294168975
Epoch: 2026-06-20T01:19Z
TLE epoch observation values (Epoch: 2026-06-20T01:19:13.068Z)
Latitude
-0.00003°
Longitude
118.1235°
Altitude
574.668 km
Speed
7.574 km/s
True Right ascension
03h 04m 48s
True Declination
0° 00' 00"
Sunlit
Object was in daylight at epoch
Visualization orbit readout
Latitude
Unknown
Longitude
Unknown
Altitude
Unknown
Speed
Unknown
Apparent Right ascension
Unknown
Apparent Declination
Unknown
Sunlit
N/A
Visualization observer readout
Local Sidereal Time
21:31:55
Azimuth
Unknown
Elevation
Unknown
Doppler factor
Unknown
Orbital elements
Apogee altitude
572.02 km
Perigee altitude
567.974 km
Semi-major axis
6,948.134 km
Eccentricity
0.00029
Inclination
69.9997°
RAAN
46.2031°
Arg. of periapsis
264.56°
True anomaly
95.55591°
Mean anomaly
95.5227°
Eccentric anomaly
95.53931°
Mean motion
3.74749 °/min
Orbital period
96.06 mins
BSTAR
-0.000011632
Loading maneuver chart data...
Computing Atmospheric mass density...
Loading historical data...
Loading historical data...
Loading historical data...
Loading historical data...
Loading historical data...
Loading historical data...
Loading historical data...

Documentation

Showing up to 5 results
|